GW1985 Weather Reports


Display with metric or nautical units.
time (UTC)temp
F
wind
direction
speed
MPH
gust
MPH
rain 1hr
in
rain 24hr
in
rain mn
in
humidity
%
barometer
mb
20240714114631 66 342 0.0 0.0 0.00 0.00 0.00 99 1010.2
20240714114130 66 342 0.0 0.0 0.00 0.00 0.00 99 1010.0
20240714113630 66 342 0.0 0.0 0.00 0.00 0.00 99 1010.0
20240714113130 66 342 0.0 0.0 0.00 0.00 0.00 99 1009.9
20240714112628 65 342 0.0 0.0 0.00 0.00 0.00 99 1009.9
20240714112127 65 342 0.0 0.0 0.00 0.00 0.00 99 1010.1
20240714111625 65 357 0.0 0.0 0.00 0.00 0.00 99 1010.0
20240714111123 65 330 0.0 0.0 0.00 0.00 0.00 99 1009.8
20240714110623 65 330 0.0 0.0 0.00 0.00 0.00 99 1010.0
20240714110121 65 330 0.0 0.0 0.00 0.00 0.00 99 1010.2
20240714105620 65 329 0.0 0.0 0.00 0.00 0.00 99 1010.2
20240714105118 65 330 0.0 0.0 0.00 0.00 0.00 99 1010.2
20240714104617 65 330 0.0 0.0 0.00 0.00 0.00 99 1010.5
20240714104115 65 299 0.0 0.0 0.00 0.00 0.00 99 1010.4
20240714103612 65 300 0.0 0.0 0.00 0.00 0.00 99 1010.5
20240714103110 65 300 0.0 0.0 0.00 0.00 0.00 99 1010.4
20240714102608 65 299 0.0 0.0 0.00 0.00 0.00 99 1010.8
20240714102108 65 318 0.0 0.0 0.00 0.00 0.00 99 1010.9
20240714101606 65 327 0.0 0.0 0.00 0.00 0.00 99 1010.9
20240714101106 65 314 0.0 0.0 0.00 0.00 0.00 99 1010.8
20240714100604 65 273 0.0 0.0 0.00 0.00 0.00 99 1010.8
20240714100100 65 238 0.0 0.0 0.00 0.00 0.00 99 1010.7
20240714095557 65 327 0.0 0.0 0.00 0.00 0.00 99 1010.5
20240714095057 65 328 0.0 0.0 0.00 0.00 0.00 99 1010.4
20240714094556 65 327 0.0 0.0 0.00 0.00 0.00 99 1010.3
20240714094056 65 328 0.0 0.0 0.00 0.00 0.00 99 1010.3
20240714093554 65 328 0.0 0.0 0.00 0.00 0.00 99 1010.5
20240714093052 65 327 0.0 0.0 0.00 0.00 0.00 99 1010.2
20240714092551 64 330 0.0 0.0 0.00 0.00 0.00 99 1010.1
20240714092050 65 330 0.0 0.0 0.00 0.00 0.00 99 1010.0
20240714091549 65 352 0.0 0.0 0.00 0.00 0.00 99 1010.0
20240714091048 65 353 0.0 0.0 0.00 0.00 0.00 99 1010.0
20240714090546 65 3 0.0 0.0 0.00 0.00 0.00 99 1010.1
20240714090045 65 49 0.0 0.0 0.00 0.00 0.00 99 1009.8
20240714085545 65 314 0.0 0.0 0.00 0.00 0.00 99 1009.4
20240714085044 65 317 0.0 0.0 0.00 0.00 0.00 99 1009.3
20240714060415 67 307 22.0 32.0 0.16 0.02 0.02 93 1012.8
20240714055913 67 307 22.0 32.0 0.16 0.02 0.02 93 1012.8
20240714055410 70 322 18.0 37.0 0.11 0.02 0.02 89 1012.7
20240714054908 74 277 12.0 13.0 0.00 0.00 0.00 89 1012.2
20240714054407 74 321 2.0 2.0 0.00 0.00 0.00 96 1010.8
20240714053904 74 356 0.0 0.0 0.00 0.00 0.00 96 1010.4
20240714053402 74 46 0.0 1.0 0.00 0.00 0.00 96 1009.7
20240714052901 74 80 0.0 0.0 0.00 0.00 0.00 96 1009.6
20240714052359 74 325 0.0 0.0 0.00 0.00 0.00 96 1009.9
20240714051857 74 325 0.0 0.0 0.00 0.00 0.00 96 1009.9
20240714051356 74 313 0.0 1.0 0.00 0.00 0.00 96 1009.9
20240714050855 74 31 0.0 1.0 0.00 0.00 0.00 95 1009.9
20240714050353 74 50 0.0 0.0 0.00 0.00 0.00 95 1009.7
20240714045853 74 52 0.0 0.0 0.00 0.48 0.48 95 1009.4
20240714045350 74 149 1.0 1.0 0.00 0.48 0.48 96 1009.7
20240714044848 74 78 0.0 0.0 0.00 0.48 0.48 96 1009.9
20240714044347 74 112 1.0 1.0 0.00 0.48 0.48 96 1010.3
20240714043846 75 163 0.0 0.0 0.00 0.48 0.48 96 1009.9
20240714043344 75 178 0.0 0.0 0.00 0.48 0.48 96 1010.4
20240714042843 75 164 0.0 1.0 0.00 0.48 0.48 96 1010.4
20240714042342 75 27 0.0 0.0 0.00 0.48 0.48 95 1010.2
20240714041840 75 27 0.0 0.0 0.00 0.48 0.48 95 1010.6
20240714041340 75 38 0.0 0.0 0.00 0.48 0.48 95 1010.7
20240714040838 75 70 0.0 0.0 0.00 0.48 0.48 95 1010.5
20240714040337 75 108 1.0 1.0 0.00 0.48 0.48 96 1010.5
20240714035836 75 101 0.0 0.0 0.00 0.48 0.48 96 1010.7
20240714035336 75 73 0.0 0.0 0.00 0.48 0.48 97 1010.8
20240714034835 75 354 0.0 0.0 0.00 0.48 0.48 97 1010.7
20240714034333 75 64 0.0 0.0 0.00 0.48 0.48 97 1010.7
20240714033831 75 77 0.0 0.0 0.00 0.48 0.48 97 1010.7
20240714033330 76 114 0.0 0.0 0.00 0.48 0.48 97 1010.4
20240714032829 76 14 0.0 0.0 0.00 0.48 0.48 97 1010.7
20240714032327 76 95 0.0 0.0 0.00 0.48 0.48 97 1010.5
20240714031823 76 8 0.0 0.0 0.00 0.48 0.48 97 1010.7
20240714031320 76 16 0.0 0.0 0.00 0.48 0.48 97 1010.8
20240714030820 76 56 0.0 0.0 0.00 0.48 0.48 97 1010.9
20240714030319 76 9 0.0 0.0 0.00 0.48 0.48 97 1010.7
20240714025818 76 8 0.0 0.0 0.00 0.48 0.48 97 1010.8
20240714025317 76 8 0.0 0.0 0.00 0.48 0.48 97 1010.7
20240714024815 76 8 0.0 0.0 0.00 0.48 0.48 97 1011.0
20240714024315 76 8 0.0 0.0 0.00 0.48 0.48 96 1010.7
20240714023813 76 7 0.0 0.0 0.00 0.48 0.48 96 1010.6
20240714023311 76 8 0.0 0.0 0.00 0.48 0.48 96 1010.4
20240714022810 76 8 0.0 0.0 0.00 0.48 0.48 96 1010.3
20240714022308 76 8 0.0 0.0 0.00 0.48 0.48 95 1010.2
20240714021806 77 8 0.0 0.0 0.00 0.48 0.48 95 1010.1
20240714021303 77 7 0.0 0.0 0.00 0.48 0.48 95 1010.1
20240714020803 77 30 0.0 0.0 0.00 0.48 0.48 95 1010.0
20240714020302 77 30 0.0 0.0 0.00 0.48 0.48 94 1009.9
20240714015800 77 74 0.0 0.0 0.00 0.48 0.48 94 1009.7
20240714015258 77 49 0.0 0.0 0.00 0.48 0.48 94 1009.8
20240714014756 78 85 0.0 0.0 0.00 0.48 0.48 94 1009.6
20240714014254 78 91 0.0 0.0 0.00 0.48 0.48 93 1009.7
20240714013753 78 78 0.0 0.0 0.00 0.48 0.48 93 1010.0
20240714013252 79 76 0.0 0.0 0.00 0.48 0.48 92 1010.0
20240714012750 79 175 0.0 0.0 0.00 0.48 0.48 92 1010.2
20240714012249 79 115 0.0 0.0 0.00 0.48 0.48 91 1010.2
20240714011749 79 215 0.0 0.0 0.00 0.48 0.48 91 1010.1
20240714011248 80 209 0.0 0.0 0.00 0.48 0.48 91 1010.2
20240714010745 80 37 0.0 0.0 0.00 0.48 0.48 91 1010.4
20240714010242 80 247 0.0 0.0 0.00 0.48 0.48 91 1010.5
20240714005743 80 181 0.0 0.0 0.00 0.48 0.48 91 1010.7
20240714005242 80 201 0.0 0.0 0.00 0.48 0.48 90 1010.5
20240714004741 81 21 0.0 0.0 0.00 0.48 0.48 89 1010.4
20240714004239 81 173 1.0 1.0 0.00 0.48 0.48 89 1010.6
20240714003738 81 168 0.0 0.0 0.00 0.48 0.48 89 1010.5
20240714003236 81 170 0.0 1.0 0.00 0.48 0.48 88 1010.3
20240714002735 81 144 0.0 1.0 0.00 0.48 0.48 89 1010.4
20240714002233 82 12 0.0 0.0 0.00 0.48 0.48 87 1010.3
20240714001731 81 244 0.0 0.0 0.00 0.48 0.48 88 1010.3
20240714001229 81 154 2.0 2.0 0.00 0.48 0.48 88 1010.3
20240714000728 81 110 1.0 1.0 0.00 0.48 0.48 88 1010.4
20240714000226 81 249 1.0 1.0 0.00 0.48 0.48 88 1010.4
20240713235725 81 196 1.0 1.0 0.00 0.48 0.48 88 1010.6
20240713235223 82 186 1.0 1.0 0.00 0.48 0.48 87 1010.5
20240713234722 81 166 0.0 1.0 0.00 0.48 0.48 86 1010.2
20240713234221 82 159 2.0 3.0 0.00 0.48 0.48 84 1010.7
20240713233720 82 219 0.0 0.0 0.00 0.48 0.48 82 1010.7
20240713233220 81 146 2.0 2.0 0.00 0.48 0.48 83 1010.6
20240713232718 81 139 2.0 2.0 0.00 0.48 0.48 83 1010.7
20240713232217 81 96 2.0 2.0 0.00 0.48 0.48 85 1010.8
20240713231718 81 106 1.0 2.0 0.00 0.48 0.48 85 1010.9
20240713231214 80 37 1.0 2.0 0.00 0.48 0.48 86 1010.9
20240713230713 80 102 2.0 2.0 0.00 0.48 0.48 86 1011.2
20240713230213 80 88 3.0 5.0 0.00 0.48 0.48 85 1010.9
20240713225712 81 102 3.0 3.0 0.00 0.48 0.48 83 1011.2
20240713225211 80 119 2.0 3.0 0.00 0.48 0.48 84 1011.1
20240713224709 80 108 1.0 2.0 0.00 0.48 0.48 84 1011.2
20240713224208 80 31 0.0 1.0 0.00 0.48 0.48 85 1011.2
20240713223707 80 147 1.0 3.0 0.00 0.48 0.48 84 1011.1
20240713223205 80 181 2.0 3.0 0.00 0.48 0.48 85 1011.2
20240713222705 80 116 5.0 7.0 0.00 0.48 0.48 85 1011.0
20240713222203 80 127 3.0 5.0 0.00 0.48 0.48 84 1011.1
20240713221701 80 205 0.0 0.0 0.00 0.48 0.48 82 1011.1
20240713221200 80 12 1.0 2.0 0.00 0.48 0.48 85 1011.0
20240713220658 79 10 0.0 1.0 0.00 0.48 0.48 86 1011.1
20240713220155 79 339 2.0 2.0 0.00 0.48 0.48 88 1011.4
20240713215649 78 318 1.0 2.0 0.00 0.48 0.48 91 1011.3
20240713215132 77 294 0.0 0.0 0.00 0.48 0.48 93 1011.2
20240713214630 76 341 0.0 1.0 0.00 0.48 0.48 95 1011.5
20240713214128 75 334 0.0 0.0 0.00 0.48 0.48 96 1011.4
20240713213626 74 333 0.0 1.0 0.00 0.48 0.48 96 1011.4
20240713213126 74 320 0.0 0.0 0.00 0.48 0.48 96 1011.6
20240713212625 75 342 0.0 0.0 0.00 0.48 0.48 96 1011.2
20240713212125 75 72 0.0 1.0 0.00 0.48 0.48 96 1011.4
20240713211623 75 76 0.0 1.0 0.00 0.48 0.48 97 1011.5
20240713211123 75 29 0.0 0.0 0.00 0.48 0.48 97 1011.8
20240713210622 75 315 0.0 0.0 0.00 0.48 0.48 98 1012.4
20240713210121 75 323 0.0 0.0 0.00 0.48 0.48 98 1012.7
20240713205619 75 343 0.0 0.0 0.00 0.48 0.48 98 1012.8
20240713205119 75 312 1.0 1.0 0.00 0.48 0.48 98 1012.9
20240713204618 75 336 1.0 1.0 0.00 0.48 0.48 99 1013.0
20240713204116 75 328 0.0 0.0 0.00 0.48 0.48 99 1013.0
20240713203616 74 309 2.0 2.0 0.00 0.48 0.48 99 1013.1
20240713203115 75 341 0.0 0.0 0.00 0.48 0.48 98 1012.8
20240713202612 74 300 0.0 1.0 0.00 0.48 0.48 99 1013.2
20240713202111 75 283 0.0 0.0 0.00 0.48 0.48 98 1012.9
20240713201610 74 295 1.0 1.0 0.00 0.48 0.48 99 1013.2
20240713201108 74 336 0.0 0.0 0.00 0.48 0.48 99 1013.3
20240713200607 75 298 0.0 0.0 0.00 0.48 0.48 99 1013.1
20240713200106 74 315 2.0 2.0 0.00 0.48 0.48 99 1013.1
20240713195605 74 336 3.0 3.0 0.00 0.48 0.48 99 1013.1
20240713195104 74 319 1.0 1.0 0.00 0.48 0.48 99 1012.6
20240713194603 73 151 1.0 2.0 0.00 0.48 0.48 99 1012.5
20240713194101 73 147 1.0 2.0 0.00 0.48 0.48 99 1012.7
20240713193600 72 87 1.0 1.0 0.07 0.48 0.48 99 1012.7
20240713193059 72 166 3.0 3.0 0.07 0.48 0.48 99 1012.8
20240713192558 72 103 1.0 1.0 0.00 0.46 0.46 99 1013.3
20240713192057 71 100 5.0 7.0 0.00 0.46 0.46 99 1013.1
20240713191555 71 350 1.0 2.0 0.54 0.46 0.46 99 1013.7
20240713191053 70 149 3.0 3.0 0.85 0.46 0.46 99 1012.6
20240713190551 70 170 3.0 3.0 0.54 0.37 0.37 98 1013.5
20240713190051 70 260 0.0 0.0 0.14 0.29 0.29 98 1014.0
20240713185549 70 297 1.0 1.0 0.00 0.26 0.26 98 1013.5
20240713185047 70 337 0.0 0.0 0.16 0.26 0.26 98 1013.2
20240713184545 69 263 2.0 2.0 0.18 0.26 0.26 98 1012.6
20240713184044 70 255 0.0 0.0 0.00 0.22 0.22 98 1013.3
20240713183542 70 276 1.0 1.0 0.04 0.22 0.22 98 1012.9
20240713183040 70 239 1.0 1.0 0.04 0.22 0.22 97 1012.9
20240713182538 70 121 2.0 3.0 0.00 0.22 0.22 97 1013.2
20240713182036 70 115 1.0 1.0 0.35 0.22 0.22 97 1013.7
20240713181535 71 88 5.0 5.0 0.47 0.20 0.20 96 1014.6
20240713181033 71 147 1.0 2.0 0.30 0.15 0.15 95 1015.1
20240713180531 72 290 3.0 5.0 0.18 0.11 0.11 93 1015.5
20240713180031 73 326 2.0 2.0 0.11 0.09 0.09 92 1015.1
20240713175530 73 314 3.0 3.0 0.00 0.07 0.07 92 1015.0
20240713175029 74 232 0.0 0.0 0.00 0.07 0.07 91 1014.1
20240713174529 74 280 3.0 3.0 0.00 0.07 0.07 90 1014.0
20240713174029 74 333 0.0 1.0 0.00 0.07 0.07 91 1013.3
20240713173528 74 109 3.0 3.0 0.00 0.07 0.07 91 1013.0
20240713173027 73 116 2.0 2.0 0.00 0.07 0.07 90 1013.1
20240713172526 73 19 0.0 0.0 0.00 0.07 0.07 91 1013.2
20240713172024 73 113 1.0 2.0 0.00 0.07 0.07 93 1013.1
20240713171523 73 116 3.0 3.0 0.00 0.07 0.07 91 1014.1
20240713171021 73 218 0.0 0.0 0.00 0.07 0.07 91 1014.4
20240713170521 73 277 0.0 0.0 0.00 0.07 0.07 91 1014.6
20240713170019 73 290 1.0 1.0 0.00 0.07 0.07 90 1014.3
20240713165517 72 209 1.0 1.0 0.00 0.07 0.07 90 1014.4
20240713165015 72 302 2.0 2.0 0.00 0.07 0.07 91 1014.4
20240713164514 72 328 3.0 3.0 0.00 0.07 0.07 91 1014.1
20240713164012 72 111 0.0 1.0 0.00 0.07 0.07 91 1013.5
20240713163512 72 285 5.0 5.0 0.00 0.07 0.07 92 1013.2
20240713163010 72 208 2.0 2.0 0.00 0.07 0.07 91 1012.7
20240713162509 72 124 2.0 3.0 0.00 0.07 0.07 90 1012.9
20240713162007 72 282 0.0 1.0 0.00 0.07 0.07 90 1012.9
20240713161506 72 299 1.0 2.0 0.00 0.07 0.07 90 1012.7
20240713161004 72 117 3.0 3.0 0.00 0.07 0.07 89 1013.0
20240713160502 72 184 3.0 3.0 0.00 0.07 0.07 89 1013.4
20240713160001 72 192 1.0 1.0 0.00 0.07 0.07 89 1013.5
20240713155501 72 208 1.0 1.0 0.00 0.07 0.07 90 1013.9
20240713154959 72 268 0.0 1.0 0.00 0.07 0.07 91 1014.4
20240713154457 71 288 1.0 1.0 0.00 0.07 0.07 92 1014.0
20240713153956 71 64 0.0 1.0 0.00 0.07 0.07 93 1014.0
20240713153455 70 80 0.0 1.0 0.00 0.07 0.07 93 1014.0
20240713152954 70 148 1.0 1.0 0.00 0.07 0.07 93 1014.2
20240713152453 69 46 0.0 0.0 0.00 0.07 0.07 94 1014.3
20240713151952 70 322 0.0 0.0 0.00 0.07 0.07 95 1014.2
20240713151450 69 265 0.0 0.0 0.00 0.07 0.07 95 1014.0
20240713150948 69 88 1.0 2.0 0.00 0.07 0.07 95 1013.8
20240713150448 69 202 2.0 2.0 0.00 0.07 0.07 96 1013.5
20240713145946 69 114 1.0 2.0 0.00 0.07 0.07 96 1013.3
20240713145445 69 94 2.0 2.0 0.00 0.07 0.07 96 1013.1
20240713144942 68 91 6.0 8.0 0.00 0.07 0.07 96 1012.9
20240713144441 68 124 4.0 5.0 0.00 0.07 0.07 96 1013.1
20240713143937 69 99 2.0 2.0 0.00 0.07 0.07 97 1013.7
20240713143435 68 96 1.0 2.0 0.00 0.07 0.07 97 1013.7
20240713142933 68 122 3.0 3.0 0.00 0.07 0.07 97 1013.7
20240713142432 68 313 0.0 0.0 0.04 0.07 0.07 97 1013.5
20240713141931 68 65 1.0 1.0 0.04 0.07 0.07 98 1013.2
20240713141430 68 147 2.0 2.0 0.00 0.07 0.07 98 1013.5
20240713140929 67 37 0.0 0.0 0.00 0.07 0.07 98 1013.5
20240713140428 67 242 1.0 1.0 0.00 0.07 0.07 98 1013.0
20240713135927 67 102 0.0 1.0 0.00 0.07 0.07 97 1013.3
20240713135425 67 126 0.0 1.0 0.00 0.07 0.07 97 1013.5
20240713134924 67 185 1.0 1.0 0.07 0.07 0.07 97 1013.7
20240713134424 67 44 0.0 1.0 0.07 0.07 0.07 96 1013.8
20240713133923 67 22 0.0 1.0 0.00 0.05 0.05 96 1014.4
20240713133422 67 312 1.0 1.0 0.00 0.05 0.05 95 1015.1
20240713132920 67 286 2.0 2.0 0.00 0.05 0.05 95 1015.3
20240713132419 67 312 2.0 2.0 0.00 0.05 0.05 94 1016.1
20240713131917 68 329 1.0 1.0 0.00 0.05 0.05 94 1016.3
20240713131416 68 331 3.0 5.0 0.30 0.05 0.05 93 1016.5
20240713130915 70 273 8.0 9.0 0.30 0.05 0.05 91 1016.9
20240713130413 73 309 6.0 9.0 0.00 0.00 0.00 87 1016.6
20240713125911 74 282 6.0 9.0 0.00 0.00 0.00 90 1015.8
20240713125409 75 259 2.0 2.0 0.00 0.00 0.00 90 1015.2
20240713124908 75 230 1.0 1.0 0.00 0.00 0.00 90 1015.0
20240713124407 75 271 3.0 3.0 0.00 0.00 0.00 90 1015.1
20240713123906 74 278 1.0 2.0 0.00 0.00 0.00 90 1015.0
20240713123403 74 271 1.0 1.0 0.00 0.00 0.00 90 1015.2
20240713122903 74 335 0.0 0.0 0.00 0.00 0.00 90 1015.1
20240713122401 74 271 0.0 0.0 0.00 0.00 0.00 90 1015.1
20240713121859 74 302 0.0 1.0 0.00 0.00 0.00 90 1015.1
20240713121357 74 302 1.0 1.0 0.00 0.00 0.00 90 1015.1
20240713120854 74 195 2.0 2.0 0.00 0.00 0.00 90 1014.8
20240713120352 74 207 0.0 1.0 0.00 0.00 0.00 90 1014.7
20240713115852 74 113 2.0 2.0 0.00 0.00 0.00 89 1014.7
20240713115350 74 210 0.0 0.0 0.00 0.00 0.00 89 1014.9